{"data":{"norad_id":68006,"epoch":"2026-05-24T22:33:59.352192Z","epoch_age_seconds":79898,"freshness":"FRESH","line1":"1 68006U 26039W   26144.94027028  .00018259  00000+0  67117-3 0  9998","line2":"2 68006  43.0046 338.4218 0001847 271.2970  88.7670 15.27591375 13360","mean_motion":15.27591375,"eccentricity":0.0001847,"inclination_deg":43.0046,"raan_deg":338.4218,"arg_perigee_deg":271.297,"mean_anomaly_deg":88.767,"bstar":0.00067117,"rev_number":1336,"period_min":94.266046769215,"perigee_km":481.74778062794,"apogee_km":484.28229018982,"semimajor_km":6861.1520354089,"source":"CELESTRAK","updated_at":"2026-05-25T13:38:21.783318Z"}}